Year,Month,Day,Hour,Minute,Value (Times are PST for temperature in C)
2008,07,28,00,00,14.10
2008,07,28,00,01,14.10
2008,07,28,00,02,14.00
2008,07,28,00,03,14.00
2008,07,28,00,04,14.00
2008,07,28,00,05,14.00
2008,07,28,00,06,14.00
2008,07,28,00,07,14.00
2008,07,28,00,08,14.00
2008,07,28,00,09,14.10
2008,07,28,00,10,14.10
2008,07,28,00,11,14.20
2008,07,28,00,12,14.30
2008,07,28,00,13,14.30
2008,07,28,00,14,14.40
2008,07,28,00,15,14.40
2008,07,28,00,16,14.40
2008,07,28,00,17,14.50
2008,07,28,00,18,14.50
2008,07,28,00,19,14.50
2008,07,28,00,20,14.60
2008,07,28,00,21,14.60
2008,07,28,00,22,14.60
2008,07,28,00,23,14.60
2008,07,28,00,24,14.60
2008,07,28,00,25,14.60
2008,07,28,00,26,14.60
2008,07,28,00,27,14.60
2008,07,28,00,28,14.60
2008,07,28,00,29,14.50
2008,07,28,00,30,14.50
2008,07,28,00,31,14.40
2008,07,28,00,32,14.30
2008,07,28,00,33,14.30
2008,07,28,00,34,14.30
2008,07,28,00,35,14.20
2008,07,28,00,36,14.30
2008,07,28,00,37,14.30
2008,07,28,00,38,14.30
2008,07,28,00,39,14.30
2008,07,28,00,40,14.30
2008,07,28,00,41,14.30
2008,07,28,00,42,14.30
2008,07,28,00,43,14.30
2008,07,28,00,44,14.40
2008,07,28,00,45,14.40
2008,07,28,00,46,14.40
2008,07,28,00,47,14.40
2008,07,28,00,48,14.40
2008,07,28,00,49,14.40
2008,07,28,00,50,14.30
2008,07,28,00,51,14.40
2008,07,28,00,52,14.40
2008,07,28,00,53,14.30
2008,07,28,00,54,14.30
2008,07,28,00,55,14.30
2008,07,28,00,56,14.30
2008,07,28,00,57,14.40
2008,07,28,00,58,14.40
2008,07,28,00,59,14.40
2008,07,28,01,00,14.50
2008,07,28,01,01,14.50
2008,07,28,01,02,14.50
2008,07,28,01,03,14.60
2008,07,28,01,04,14.60
2008,07,28,01,05,14.60
2008,07,28,01,06,14.50
2008,07,28,01,07,14.50
2008,07,28,01,08,14.50
2008,07,28,01,09,14.40
2008,07,28,01,10,14.30
2008,07,28,01,11,14.20
2008,07,28,01,12,14.10
2008,07,28,01,13,14.00
2008,07,28,01,14,13.90
2008,07,28,01,15,13.90
2008,07,28,01,16,13.80
2008,07,28,01,17,13.60
2008,07,28,01,18,13.50
2008,07,28,01,19,13.40
2008,07,28,01,20,13.30
2008,07,28,01,21,13.10
2008,07,28,01,22,13.00
2008,07,28,01,23,12.90
2008,07,28,01,24,12.80
2008,07,28,01,25,12.80
2008,07,28,01,26,12.70
2008,07,28,01,27,12.70
2008,07,28,01,28,12.70
2008,07,28,01,29,12.70
2008,07,28,01,30,12.70
2008,07,28,01,31,12.70
2008,07,28,01,32,12.70
2008,07,28,01,33,12.70
2008,07,28,01,34,12.70
2008,07,28,01,35,12.70
2008,07,28,01,36,12.70
2008,07,28,01,37,12.60
2008,07,28,01,38,12.60
2008,07,28,01,39,12.50
2008,07,28,01,40,12.40
2008,07,28,01,41,12.40
2008,07,28,01,42,12.30
2008,07,28,01,43,12.30
2008,07,28,01,44,12.20
2008,07,28,01,45,12.10
2008,07,28,01,46,12.10
2008,07,28,01,47,12.00
2008,07,28,01,48,11.90
2008,07,28,01,49,11.90
2008,07,28,01,50,11.80
2008,07,28,01,51,11.80
2008,07,28,01,52,11.80
2008,07,28,01,53,11.80
2008,07,28,01,54,11.70
2008,07,28,01,55,11.70
2008,07,28,01,56,11.70
2008,07,28,01,57,11.60
2008,07,28,01,58,11.60
2008,07,28,01,59,11.50
2008,07,28,02,00,11.40
2008,07,28,02,01,11.40
2008,07,28,02,02,11.30
2008,07,28,02,03,11.30
2008,07,28,02,04,11.30
2008,07,28,02,05,11.30
2008,07,28,02,06,11.30
2008,07,28,02,07,11.30
2008,07,28,02,08,11.30
2008,07,28,02,09,11.30
2008,07,28,02,10,11.20
2008,07,28,02,11,11.20
2008,07,28,02,12,11.20
2008,07,28,02,13,11.20
2008,07,28,02,14,11.20
2008,07,28,02,15,11.20
2008,07,28,02,16,11.20
2008,07,28,02,17,11.20
2008,07,28,02,18,11.20
2008,07,28,02,19,11.20
2008,07,28,02,20,11.10
2008,07,28,02,21,11.10
2008,07,28,02,22,11.10
2008,07,28,02,23,11.00
2008,07,28,02,24,11.00
2008,07,28,02,25,11.00
2008,07,28,02,26,10.90
2008,07,28,02,27,10.90
2008,07,28,02,28,10.90
2008,07,28,02,29,10.90
2008,07,28,02,30,11.00
2008,07,28,02,31,11.00
2008,07,28,02,32,11.10
2008,07,28,02,33,11.10
2008,07,28,02,34,11.10
2008,07,28,02,35,11.20
2008,07,28,02,36,11.20
2008,07,28,02,37,11.20
2008,07,28,02,38,11.20
2008,07,28,02,39,11.30
2008,07,28,02,40,11.30
2008,07,28,02,41,11.30
2008,07,28,02,42,11.30
2008,07,28,02,43,11.30
2008,07,28,02,44,11.40
2008,07,28,02,45,11.40
2008,07,28,02,46,11.40
2008,07,28,02,47,11.50
2008,07,28,02,48,11.50
2008,07,28,02,49,11.50
2008,07,28,02,50,11.50
2008,07,28,02,51,11.60
2008,07,28,02,52,11.60
2008,07,28,02,53,11.60
2008,07,28,02,54,11.60
2008,07,28,02,55,11.60
2008,07,28,02,56,11.60
2008,07,28,02,57,11.60
2008,07,28,02,58,11.60
2008,07,28,02,59,11.60
2008,07,28,03,00,11.60
2008,07,28,03,01,11.60
2008,07,28,03,02,11.70
2008,07,28,03,03,11.70
2008,07,28,03,04,11.70
2008,07,28,03,05,11.70
2008,07,28,03,06,11.80
2008,07,28,03,07,11.80
2008,07,28,03,08,11.80
2008,07,28,03,09,11.80
2008,07,28,03,10,11.80
2008,07,28,03,11,11.90
2008,07,28,03,12,11.90
2008,07,28,03,13,11.90
2008,07,28,03,14,11.80
2008,07,28,03,15,11.80
2008,07,28,03,16,11.80
2008,07,28,03,17,11.80
2008,07,28,03,18,11.80
2008,07,28,03,19,11.70
2008,07,28,03,20,11.70
2008,07,28,03,21,11.70
2008,07,28,03,22,11.70
2008,07,28,03,23,11.70
2008,07,28,03,24,11.70
2008,07,28,03,25,11.80
2008,07,28,03,26,11.90
2008,07,28,03,27,11.90
2008,07,28,03,28,11.90
2008,07,28,03,29,11.90
2008,07,28,03,30,12.00
2008,07,28,03,31,12.00
2008,07,28,03,32,12.10
2008,07,28,03,33,12.10
2008,07,28,03,34,12.10
2008,07,28,03,35,12.00
2008,07,28,03,36,12.00
2008,07,28,03,37,12.00
2008,07,28,03,38,12.00
2008,07,28,03,39,12.00
2008,07,28,03,40,12.00
2008,07,28,03,41,12.00
2008,07,28,03,42,11.90
2008,07,28,03,43,11.90
2008,07,28,03,44,11.90
2008,07,28,03,45,12.00
2008,07,28,03,46,12.10
2008,07,28,03,47,12.20
2008,07,28,03,48,12.20
2008,07,28,03,49,12.30
2008,07,28,03,50,12.30
2008,07,28,03,51,12.30
2008,07,28,03,52,12.20
2008,07,28,03,53,12.20
2008,07,28,03,54,12.20
2008,07,28,03,55,12.10
2008,07,28,03,56,12.10
2008,07,28,03,57,12.10
2008,07,28,03,58,12.10
2008,07,28,03,59,12.10
2008,07,28,04,00,12.10
2008,07,28,04,01,12.10
2008,07,28,04,02,12.10
2008,07,28,04,03,12.00
2008,07,28,04,04,12.00
2008,07,28,04,05,12.10
2008,07,28,04,06,12.10
2008,07,28,04,07,12.10
2008,07,28,04,08,12.00
2008,07,28,04,09,12.00
2008,07,28,04,10,11.90
2008,07,28,04,11,11.90
2008,07,28,04,12,11.90
2008,07,28,04,13,11.80
2008,07,28,04,14,11.80
2008,07,28,04,15,11.80
2008,07,28,04,16,11.80
2008,07,28,04,17,11.80
2008,07,28,04,18,11.80
2008,07,28,04,19,11.80
2008,07,28,04,20,11.70
2008,07,28,04,21,11.80
2008,07,28,04,22,11.80
2008,07,28,04,23,11.80
2008,07,28,04,24,11.80
2008,07,28,04,25,11.80
2008,07,28,04,26,11.80
2008,07,28,04,27,11.90
2008,07,28,04,28,11.90
2008,07,28,04,29,11.90
2008,07,28,04,30,11.90
2008,07,28,04,31,11.90
2008,07,28,04,32,11.90
2008,07,28,04,33,11.90
2008,07,28,04,34,11.90
2008,07,28,04,35,12.00
2008,07,28,04,36,12.00
2008,07,28,04,37,12.00
2008,07,28,04,38,12.10
2008,07,28,04,39,12.10
2008,07,28,04,40,12.10
2008,07,28,04,41,12.20
2008,07,28,04,42,12.20
2008,07,28,04,43,12.20
2008,07,28,04,44,12.30
2008,07,28,04,45,12.30
2008,07,28,04,46,12.30
2008,07,28,04,47,12.30
2008,07,28,04,48,12.40
2008,07,28,04,49,12.40
2008,07,28,04,50,12.40
2008,07,28,04,51,12.40
2008,07,28,04,52,12.50
2008,07,28,04,53,12.50
2008,07,28,04,54,12.50
2008,07,28,04,55,12.50
2008,07,28,04,56,12.60
2008,07,28,04,57,12.60
2008,07,28,04,58,12.60
2008,07,28,04,59,12.60
2008,07,28,05,00,12.60
2008,07,28,05,01,12.60
2008,07,28,05,02,12.60
2008,07,28,05,03,12.60
2008,07,28,05,04,12.60
2008,07,28,05,05,12.60
2008,07,28,05,06,12.60
2008,07,28,05,07,12.70
2008,07,28,05,08,12.70
2008,07,28,05,09,12.70
2008,07,28,05,10,12.70
2008,07,28,05,11,12.70
2008,07,28,05,12,12.70
2008,07,28,05,13,12.70
2008,07,28,05,14,12.70
2008,07,28,05,15,12.70
2008,07,28,05,16,12.70
2008,07,28,05,17,12.80
2008,07,28,05,18,12.80
2008,07,28,05,19,12.70
2008,07,28,05,20,12.70
2008,07,28,05,21,12.70
2008,07,28,05,22,12.70
2008,07,28,05,23,12.70
2008,07,28,05,24,12.80
2008,07,28,05,25,12.80
2008,07,28,05,26,12.80
2008,07,28,05,27,12.80
2008,07,28,05,28,12.80
2008,07,28,05,29,12.80
2008,07,28,05,30,12.80
2008,07,28,05,31,12.80
2008,07,28,05,32,12.80
2008,07,28,05,33,12.80
2008,07,28,05,34,12.80
2008,07,28,05,35,12.80
2008,07,28,05,36,12.80
2008,07,28,05,37,12.80
2008,07,28,05,38,12.80
2008,07,28,05,39,12.80
2008,07,28,05,40,12.80
2008,07,28,05,41,12.80
2008,07,28,05,42,12.80
2008,07,28,05,43,12.80
2008,07,28,05,44,12.80
2008,07,28,05,45,12.80
2008,07,28,05,46,12.90
2008,07,28,05,47,12.90
2008,07,28,05,48,12.90
2008,07,28,05,49,12.90
2008,07,28,05,50,12.90
2008,07,28,05,51,13.00
2008,07,28,05,52,13.00
2008,07,28,05,53,13.00
2008,07,28,05,54,13.00
2008,07,28,05,55,13.00
2008,07,28,05,56,13.00
2008,07,28,05,57,13.00
2008,07,28,05,58,13.00
2008,07,28,05,59,13.00
2008,07,28,06,00,13.00
2008,07,28,06,01,13.00
2008,07,28,06,02,13.00
2008,07,28,06,03,13.00
2008,07,28,06,04,13.00
2008,07,28,06,05,13.00
2008,07,28,06,06,13.00
2008,07,28,06,07,13.00
2008,07,28,06,08,13.00
2008,07,28,06,09,13.00
2008,07,28,06,10,13.00
2008,07,28,06,11,13.00
2008,07,28,06,12,13.00
2008,07,28,06,13,13.00
2008,07,28,06,14,13.00
2008,07,28,06,15,12.90
2008,07,28,06,16,12.90
2008,07,28,06,17,12.90
2008,07,28,06,18,12.90
2008,07,28,06,19,13.00
2008,07,28,06,20,12.90
2008,07,28,06,21,13.00
2008,07,28,06,22,12.90
2008,07,28,06,23,12.90
2008,07,28,06,24,13.00
2008,07,28,06,25,13.00
2008,07,28,06,26,13.00
2008,07,28,06,27,13.00
2008,07,28,06,28,13.00
2008,07,28,06,29,13.00
2008,07,28,06,30,13.00
2008,07,28,06,31,13.00
2008,07,28,06,32,12.90
2008,07,28,06,33,12.90
2008,07,28,06,34,13.00
2008,07,28,06,35,12.90
2008,07,28,06,36,12.90
2008,07,28,06,37,12.90
2008,07,28,06,38,12.90
2008,07,28,06,39,12.90
2008,07,28,06,40,12.90
2008,07,28,06,41,12.90
2008,07,28,06,42,12.90
2008,07,28,06,43,12.80
2008,07,28,06,44,12.80
2008,07,28,06,45,12.80
2008,07,28,06,46,12.80
2008,07,28,06,47,12.80
2008,07,28,06,48,12.80
2008,07,28,06,49,12.80
2008,07,28,06,50,12.80
2008,07,28,06,51,12.80
2008,07,28,06,52,12.80
2008,07,28,06,53,12.80
2008,07,28,06,54,12.80
2008,07,28,06,55,12.90
2008,07,28,06,56,12.90
2008,07,28,06,57,12.90
2008,07,28,06,58,12.90
2008,07,28,06,59,12.90
2008,07,28,07,00,12.90
2008,07,28,07,01,12.90
2008,07,28,07,02,13.00
2008,07,28,07,03,13.00
2008,07,28,07,04,13.00
2008,07,28,07,05,13.10
2008,07,28,07,06,13.10
2008,07,28,07,07,13.10
2008,07,28,07,08,13.10
2008,07,28,07,09,13.10
2008,07,28,07,10,13.10
2008,07,28,07,11,13.10
2008,07,28,07,12,13.10
2008,07,28,07,13,13.10
2008,07,28,07,14,13.10
2008,07,28,07,15,13.10
2008,07,28,07,16,13.00
2008,07,28,07,17,13.00
2008,07,28,07,18,13.00
2008,07,28,07,19,13.10
2008,07,28,07,20,13.00
2008,07,28,07,21,13.00
2008,07,28,07,22,13.00
2008,07,28,07,23,13.00
2008,07,28,07,24,13.10
2008,07,28,07,25,13.10
2008,07,28,07,26,13.00
2008,07,28,07,27,13.10
2008,07,28,07,28,13.10
2008,07,28,07,29,13.10
2008,07,28,07,30,13.10
2008,07,28,07,31,13.10
2008,07,28,07,32,13.10
2008,07,28,07,33,13.10
2008,07,28,07,34,13.10
2008,07,28,07,35,13.10
2008,07,28,07,36,13.10
2008,07,28,07,37,13.10
2008,07,28,07,38,13.20
2008,07,28,07,39,13.20
2008,07,28,07,40,13.20
2008,07,28,07,41,13.20
2008,07,28,07,42,13.20
2008,07,28,07,43,13.20
2008,07,28,07,44,13.30
2008,07,28,07,45,13.30
2008,07,28,07,46,13.30
2008,07,28,07,47,13.30
2008,07,28,07,48,13.30
2008,07,28,07,49,13.30
2008,07,28,07,50,13.30
2008,07,28,07,51,13.30
2008,07,28,07,52,13.40
2008,07,28,07,53,13.40
2008,07,28,07,54,13.40
2008,07,28,07,55,13.40
2008,07,28,07,56,13.40
2008,07,28,07,57,13.50
2008,07,28,07,58,13.50
2008,07,28,07,59,13.60
2008,07,28,08,00,13.60
2008,07,28,08,01,13.70
2008,07,28,08,02,13.70
2008,07,28,08,03,13.80
2008,07,28,08,04,13.80
2008,07,28,08,05,13.90
2008,07,28,08,06,14.00
2008,07,28,08,07,14.00
2008,07,28,08,08,14.10
2008,07,28,08,09,14.20
2008,07,28,08,10,14.30
2008,07,28,08,11,14.40
2008,07,28,08,12,14.40
2008,07,28,08,13,14.40
2008,07,28,08,14,14.50
2008,07,28,08,15,14.60
2008,07,28,08,16,14.60
2008,07,28,08,17,14.60
2008,07,28,08,18,14.70
2008,07,28,08,19,14.70
2008,07,28,08,20,14.70
2008,07,28,08,21,14.70
2008,07,28,08,22,14.70
2008,07,28,08,23,14.70
2008,07,28,08,24,14.60
2008,07,28,08,25,14.60
2008,07,28,08,26,14.60
2008,07,28,08,27,14.60
2008,07,28,08,28,14.60
2008,07,28,08,29,14.60
2008,07,28,08,30,14.60
2008,07,28,08,31,14.60
2008,07,28,08,32,14.70
2008,07,28,08,33,14.70
2008,07,28,08,34,14.80
2008,07,28,08,35,14.80
2008,07,28,08,36,14.90
2008,07,28,08,37,14.90
2008,07,28,08,38,14.90
2008,07,28,08,39,15.00
2008,07,28,08,40,15.00
2008,07,28,08,41,15.00
2008,07,28,08,42,15.00
2008,07,28,08,43,15.00
2008,07,28,08,44,15.10
2008,07,28,08,45,15.20
2008,07,28,08,46,15.30
2008,07,28,08,47,15.30
2008,07,28,08,48,15.30
2008,07,28,08,49,15.30
2008,07,28,08,50,15.20
2008,07,28,08,51,15.20
2008,07,28,08,52,15.20
2008,07,28,08,53,15.20
2008,07,28,08,54,15.20
2008,07,28,08,55,15.20
2008,07,28,08,56,15.10
2008,07,28,08,57,15.10
2008,07,28,08,58,15.00
2008,07,28,08,59,15.00
2008,07,28,09,00,15.00
2008,07,28,09,01,15.10
2008,07,28,09,02,15.10
2008,07,28,09,03,15.20
2008,07,28,09,04,15.20
2008,07,28,09,05,15.30
2008,07,28,09,06,15.30
2008,07,28,09,07,15.40
2008,07,28,09,08,15.40
2008,07,28,09,09,15.50
2008,07,28,09,10,15.50
2008,07,28,09,11,15.50
2008,07,28,09,12,15.50
2008,07,28,09,13,15.50
2008,07,28,09,14,15.60
2008,07,28,09,15,15.60
2008,07,28,09,16,15.60
2008,07,28,09,17,15.50
2008,07,28,09,18,15.50
2008,07,28,09,19,15.50
2008,07,28,09,20,15.50
2008,07,28,09,21,15.50
2008,07,28,09,22,15.50
2008,07,28,09,23,15.50
2008,07,28,09,24,15.60
2008,07,28,09,25,15.60
2008,07,28,09,26,15.70
2008,07,28,09,27,15.70
2008,07,28,09,28,15.70
2008,07,28,09,29,15.90
2008,07,28,09,30,16.00
2008,07,28,09,31,16.10
2008,07,28,09,32,16.20
2008,07,28,09,33,16.20
2008,07,28,09,34,16.20
2008,07,28,09,35,16.20
2008,07,28,09,36,16.20
2008,07,28,09,37,16.20
2008,07,28,09,38,16.30
2008,07,28,09,39,16.40
2008,07,28,09,40,16.50
2008,07,28,09,41,16.60
2008,07,28,09,42,16.60
2008,07,28,09,43,16.50
2008,07,28,09,44,16.40
2008,07,28,09,45,16.40
2008,07,28,09,46,16.40
2008,07,28,09,47,16.40
2008,07,28,09,48,16.50
2008,07,28,09,49,16.50
2008,07,28,09,50,16.50
2008,07,28,09,51,16.40
2008,07,28,09,52,16.40
2008,07,28,09,53,16.40
2008,07,28,09,54,16.40
2008,07,28,09,55,16.40
2008,07,28,09,56,16.40
2008,07,28,09,57,16.40
2008,07,28,09,58,16.40
2008,07,28,09,59,16.50
2008,07,28,10,00,16.50
2008,07,28,10,01,16.60
2008,07,28,10,02,16.70
2008,07,28,10,03,16.70
2008,07,28,10,04,16.80
2008,07,28,10,05,16.80
2008,07,28,10,06,16.80
2008,07,28,10,07,16.80
2008,07,28,10,08,16.90
2008,07,28,10,09,16.90
2008,07,28,10,10,16.90
2008,07,28,10,11,16.90
2008,07,28,10,12,16.80
2008,07,28,10,13,16.80
2008,07,28,10,14,16.80
2008,07,28,10,15,16.90
2008,07,28,10,16,16.90
2008,07,28,10,17,17.00
2008,07,28,10,18,17.20
2008,07,28,10,19,17.30
2008,07,28,10,20,17.40
2008,07,28,10,21,17.50
2008,07,28,10,22,17.60
2008,07,28,10,23,17.60
2008,07,28,10,24,17.60
2008,07,28,10,25,17.60
2008,07,28,10,26,17.60
2008,07,28,10,27,17.60
2008,07,28,10,28,17.60
2008,07,28,10,29,17.60
2008,07,28,10,30,17.50
2008,07,28,10,31,17.40
2008,07,28,10,32,17.40
2008,07,28,10,33,17.30
2008,07,28,10,34,17.30
2008,07,28,10,35,17.40
2008,07,28,10,36,17.40
2008,07,28,10,37,17.40
2008,07,28,10,38,17.30
2008,07,28,10,39,17.20
2008,07,28,10,40,17.20
2008,07,28,10,41,17.10
2008,07,28,10,42,17.10
2008,07,28,10,43,17.10
2008,07,28,10,44,17.10
2008,07,28,10,45,17.10
2008,07,28,10,46,17.10
2008,07,28,10,47,17.10
2008,07,28,10,48,17.20
2008,07,28,10,49,17.20
2008,07,28,10,50,17.20
2008,07,28,10,51,17.20
2008,07,28,10,52,17.20
2008,07,28,10,53,17.20
2008,07,28,10,54,17.00
2008,07,28,10,55,17.00
2008,07,28,10,56,16.90
2008,07,28,10,57,16.80
2008,07,28,10,58,16.70
2008,07,28,10,59,16.70
2008,07,28,11,00,16.60
2008,07,28,11,01,16.60
2008,07,28,11,02,16.60
2008,07,28,11,03,16.70
2008,07,28,11,04,16.70
2008,07,28,11,05,16.80
2008,07,28,11,06,16.80
2008,07,28,11,07,16.80
2008,07,28,11,08,16.90
2008,07,28,11,09,16.90
2008,07,28,11,10,17.00
2008,07,28,11,11,17.00
2008,07,28,11,12,17.10
2008,07,28,11,13,17.10
2008,07,28,11,14,17.10
2008,07,28,11,15,17.00
2008,07,28,11,16,17.10
2008,07,28,11,17,17.00
2008,07,28,11,18,17.00
2008,07,28,11,19,16.90
2008,07,28,11,20,16.80
2008,07,28,11,21,16.70
2008,07,28,11,22,16.70
2008,07,28,11,23,16.70
2008,07,28,11,24,16.70
2008,07,28,11,25,16.80
2008,07,28,11,26,16.90
2008,07,28,11,27,17.00
2008,07,28,11,28,17.10
2008,07,28,11,29,17.30
2008,07,28,11,30,17.40
2008,07,28,11,31,17.60
2008,07,28,11,32,17.70
2008,07,28,11,33,17.80
2008,07,28,11,34,17.80
2008,07,28,11,35,17.80
2008,07,28,11,36,17.80
2008,07,28,11,37,17.90
2008,07,28,11,38,17.80
2008,07,28,11,39,17.70
2008,07,28,11,40,17.70
2008,07,28,11,41,17.70
2008,07,28,11,42,17.70
2008,07,28,11,43,17.70
2008,07,28,11,44,17.70
2008,07,28,11,45,17.70
2008,07,28,11,46,17.70
2008,07,28,11,47,17.80
2008,07,28,11,48,17.70
2008,07,28,11,49,17.70
2008,07,28,11,50,17.70
2008,07,28,11,51,17.80
2008,07,28,11,52,17.80
2008,07,28,11,53,17.80
2008,07,28,11,54,17.80
2008,07,28,11,55,17.80
2008,07,28,11,56,17.90
2008,07,28,11,57,17.80
2008,07,28,11,58,17.80
2008,07,28,11,59,17.70
2008,07,28,12,00,17.60
2008,07,28,12,01,17.50
2008,07,28,12,02,17.50
2008,07,28,12,03,17.50
2008,07,28,12,04,17.50
2008,07,28,12,05,17.50
2008,07,28,12,06,17.40
2008,07,28,12,07,17.50
2008,07,28,12,08,17.50
2008,07,28,12,09,17.60
2008,07,28,12,10,17.60
2008,07,28,12,11,17.70
2008,07,28,12,12,17.70
2008,07,28,12,13,17.70
2008,07,28,12,14,17.60
2008,07,28,12,15,17.50
2008,07,28,12,16,17.50
2008,07,28,12,17,17.60
2008,07,28,12,18,17.60
2008,07,28,12,19,17.70
2008,07,28,12,20,17.80
2008,07,28,12,21,17.90
2008,07,28,12,22,17.90
2008,07,28,12,23,17.90
2008,07,28,12,24,17.90
2008,07,28,12,25,17.80
2008,07,28,12,26,17.80
2008,07,28,12,27,17.80
2008,07,28,12,28,17.70
2008,07,28,12,29,17.70
2008,07,28,12,30,17.70
2008,07,28,12,31,17.80
2008,07,28,12,32,17.90
2008,07,28,12,33,17.90
2008,07,28,12,34,17.90
2008,07,28,12,35,17.90
2008,07,28,12,36,17.90
2008,07,28,12,37,17.90
2008,07,28,12,38,17.80
2008,07,28,12,39,17.70
2008,07,28,12,40,17.70
2008,07,28,12,41,17.70
2008,07,28,12,42,17.80
2008,07,28,12,43,17.90
2008,07,28,12,44,18.00
2008,07,28,12,45,18.10
2008,07,28,12,46,18.10
2008,07,28,12,47,18.20
2008,07,28,12,48,18.20
2008,07,28,12,49,18.20
2008,07,28,12,50,18.20
2008,07,28,12,51,18.20
2008,07,28,12,52,18.10
2008,07,28,12,53,18.00
2008,07,28,12,54,17.90
2008,07,28,12,55,17.90
2008,07,28,12,56,17.90
2008,07,28,12,57,17.90
2008,07,28,12,58,18.00
2008,07,28,12,59,18.10
2008,07,28,13,00,18.10
2008,07,28,13,01,18.10
2008,07,28,13,02,18.10
2008,07,28,13,03,18.00
2008,07,28,13,04,18.00
2008,07,28,13,05,18.00
2008,07,28,13,06,18.00
2008,07,28,13,07,18.00
2008,07,28,13,08,18.00
2008,07,28,13,09,17.90
2008,07,28,13,10,17.90
2008,07,28,13,11,17.90
2008,07,28,13,12,17.90
2008,07,28,13,13,17.90
2008,07,28,13,14,17.90
2008,07,28,13,15,18.00
2008,07,28,13,16,18.00
2008,07,28,13,17,18.10
2008,07,28,13,18,18.10
2008,07,28,13,19,18.10
2008,07,28,13,20,18.10
2008,07,28,13,21,18.10
2008,07,28,13,22,18.00
2008,07,28,13,23,18.00
2008,07,28,13,24,17.90
2008,07,28,13,25,17.90
2008,07,28,13,26,17.80
2008,07,28,13,27,17.80
2008,07,28,13,28,17.80
2008,07,28,13,29,17.70
2008,07,28,13,30,17.70
2008,07,28,13,31,17.60
2008,07,28,13,32,17.60
2008,07,28,13,33,17.50
2008,07,28,13,34,17.50
2008,07,28,13,35,17.50
2008,07,28,13,36,17.50
2008,07,28,13,37,17.40
2008,07,28,13,38,17.40
2008,07,28,13,39,17.40
2008,07,28,13,40,17.40
2008,07,28,13,41,17.50
2008,07,28,13,42,17.50
2008,07,28,13,43,17.60
2008,07,28,13,44,17.60
2008,07,28,13,45,17.60
2008,07,28,13,46,17.60
2008,07,28,13,47,17.60
2008,07,28,13,48,17.50
2008,07,28,13,49,17.60
2008,07,28,13,50,17.70
2008,07,28,13,51,17.80
2008,07,28,13,52,17.80
2008,07,28,13,53,17.90
2008,07,28,13,54,18.00
2008,07,28,13,55,18.10
2008,07,28,13,56,18.30
2008,07,28,13,57,18.50
2008,07,28,13,58,18.60
2008,07,28,13,59,18.70
2008,07,28,14,00,18.90
2008,07,28,14,01,18.90
2008,07,28,14,02,18.90
2008,07,28,14,03,19.00
2008,07,28,14,04,19.00
2008,07,28,14,05,19.00
2008,07,28,14,06,18.80
2008,07,28,14,07,18.70
2008,07,28,14,08,18.60
2008,07,28,14,09,18.50
2008,07,28,14,10,18.40
2008,07,28,14,11,18.40
2008,07,28,14,12,18.30
2008,07,28,14,13,18.30
2008,07,28,14,14,18.30
2008,07,28,14,15,18.30
2008,07,28,14,16,18.20
2008,07,28,14,17,18.20
2008,07,28,14,18,18.10
2008,07,28,14,19,18.10
2008,07,28,14,20,18.10
2008,07,28,14,21,17.90
2008,07,28,14,22,17.80
2008,07,28,14,23,17.70
2008,07,28,14,24,17.70
2008,07,28,14,25,17.60
2008,07,28,14,26,17.50
2008,07,28,14,27,17.50
2008,07,28,14,28,17.40
2008,07,28,14,29,17.40
2008,07,28,14,30,17.50
2008,07,28,14,31,17.50
2008,07,28,14,32,17.50
2008,07,28,14,33,17.50
2008,07,28,14,34,17.50
2008,07,28,14,35,17.50
2008,07,28,14,36,17.40
2008,07,28,14,37,17.40
2008,07,28,14,38,17.40
2008,07,28,14,39,17.40
2008,07,28,14,40,17.30
2008,07,28,14,41,17.30
2008,07,28,14,42,17.30
2008,07,28,14,43,17.30
2008,07,28,14,44,17.30
2008,07,28,14,45,17.30
2008,07,28,14,46,17.30
2008,07,28,14,47,17.20
2008,07,28,14,48,17.20
2008,07,28,14,49,17.20
2008,07,28,14,50,17.30
2008,07,28,14,51,17.30
2008,07,28,14,52,17.30
2008,07,28,14,53,17.30
2008,07,28,14,54,17.30
2008,07,28,14,55,17.40
2008,07,28,14,56,17.40
2008,07,28,14,57,17.40
2008,07,28,14,58,17.50
2008,07,28,14,59,17.50
2008,07,28,15,00,17.50
2008,07,28,15,01,17.60
2008,07,28,15,02,17.60
2008,07,28,15,03,17.50
2008,07,28,15,04,17.50
2008,07,28,15,05,17.50
2008,07,28,15,06,17.60
2008,07,28,15,07,17.60
2008,07,28,15,08,17.50
2008,07,28,15,09,17.50
2008,07,28,15,10,17.60
2008,07,28,15,11,17.60
2008,07,28,15,12,17.60
2008,07,28,15,13,17.60
2008,07,28,15,14,17.60
2008,07,28,15,15,17.60
2008,07,28,15,16,17.70
2008,07,28,15,17,17.70
2008,07,28,15,18,17.70
2008,07,28,15,19,17.70
2008,07,28,15,20,17.70
2008,07,28,15,21,17.70
2008,07,28,15,22,17.80
2008,07,28,15,23,17.80
2008,07,28,15,24,17.80
2008,07,28,15,25,17.80
2008,07,28,15,26,17.90
2008,07,28,15,27,17.90
2008,07,28,15,28,17.90
2008,07,28,15,29,17.90
2008,07,28,15,30,17.90
2008,07,28,15,31,17.90
2008,07,28,15,32,17.90
2008,07,28,15,33,17.90
2008,07,28,15,34,17.90
2008,07,28,15,35,17.90
2008,07,28,15,36,17.90
2008,07,28,15,37,17.90
2008,07,28,15,38,18.00
2008,07,28,15,39,18.00
2008,07,28,15,40,18.10
2008,07,28,15,41,18.20
2008,07,28,15,42,18.20
2008,07,28,15,43,18.30
2008,07,28,15,44,18.40
2008,07,28,15,45,18.40
2008,07,28,15,46,18.50
2008,07,28,15,47,18.50
2008,07,28,15,48,18.50
2008,07,28,15,49,18.60
2008,07,28,15,50,18.60
2008,07,28,15,51,18.60
2008,07,28,15,52,18.70
2008,07,28,15,53,18.70
2008,07,28,15,54,18.70
2008,07,28,15,55,18.70
2008,07,28,15,56,18.70
2008,07,28,15,57,18.70
2008,07,28,15,58,18.70
2008,07,28,15,59,18.70
2008,07,28,16,00,18.70
2008,07,28,16,01,18.70
2008,07,28,16,02,18.70
2008,07,28,16,03,18.60
2008,07,28,16,04,18.60
2008,07,28,16,05,18.50
2008,07,28,16,06,18.50
2008,07,28,16,07,18.50
2008,07,28,16,08,18.40
2008,07,28,16,09,18.40
2008,07,28,16,10,18.50
2008,07,28,16,11,18.50
2008,07,28,16,12,18.50
2008,07,28,16,13,18.50
2008,07,28,16,14,18.60
2008,07,28,16,15,18.60
2008,07,28,16,16,18.60
2008,07,28,16,17,18.60
2008,07,28,16,18,18.50
2008,07,28,16,19,18.50
2008,07,28,16,20,18.50
2008,07,28,16,21,18.50
2008,07,28,16,22,18.60
2008,07,28,16,23,18.60
2008,07,28,16,24,18.60
2008,07,28,16,25,18.60
2008,07,28,16,26,18.60
2008,07,28,16,27,18.60
2008,07,28,16,28,18.60
2008,07,28,16,29,18.60
2008,07,28,16,30,18.50
2008,07,28,16,31,18.50
2008,07,28,16,32,18.50
2008,07,28,16,33,18.50
2008,07,28,16,34,18.50
2008,07,28,16,35,18.50
2008,07,28,16,36,18.50
2008,07,28,16,37,18.50
2008,07,28,16,38,18.50
2008,07,28,16,39,18.50
2008,07,28,16,40,18.50
2008,07,28,16,41,18.50
2008,07,28,16,42,18.50
2008,07,28,16,43,18.50
2008,07,28,16,44,18.60
2008,07,28,16,45,18.60
2008,07,28,16,46,18.50
2008,07,28,16,47,18.50
2008,07,28,16,48,18.60
2008,07,28,16,49,18.60
2008,07,28,16,50,18.60
2008,07,28,16,51,18.60
2008,07,28,16,52,18.70
2008,07,28,16,53,18.70
2008,07,28,16,54,18.70
2008,07,28,16,55,18.70
2008,07,28,16,56,18.70
2008,07,28,16,57,18.70
2008,07,28,16,58,18.70
2008,07,28,16,59,18.70
2008,07,28,17,00,18.80
2008,07,28,17,01,18.80
2008,07,28,17,02,18.80
2008,07,28,17,03,18.80
2008,07,28,17,04,18.80
2008,07,28,17,05,18.80
2008,07,28,17,06,18.80
2008,07,28,17,07,18.80
2008,07,28,17,08,18.70
2008,07,28,17,09,18.70
2008,07,28,17,10,18.70
2008,07,28,17,11,18.70
2008,07,28,17,12,18.70
2008,07,28,17,13,18.70
2008,07,28,17,14,18.70
2008,07,28,17,15,18.70
2008,07,28,17,16,18.70
2008,07,28,17,17,18.70
2008,07,28,17,18,18.70
2008,07,28,17,19,18.70